SB KEPS @ AMSAT $ORB07046.N 2Line Orbital Elements 07046.AMSAT
HR AMSAT ORBITAL ELEMENTS FOR AMATEUR SATELLITES IN NASA FORMAT FROM WA5QGD FORT WORTH,TX February 15, 2007 Send SUBSCRIBE KEPS/UNSUBSCRIBE KEPS to [email protected] only BID: ORB07046.N
DECODE 2-LINE ELSETS WITH THE FOLLOWING KEY: 1 AAAAAU 00 0 0 BBBBB.BBBBBBBB .CCCCCCCC 00000-0 00000-0 0 DDDZ 2 AAAAA EEE.EEEE FFF.FFFF GGGGGGG HHH.HHHH III.IIII JJ.JJJJJJJJKKKKKZ KEY: A-CATALOGNUM B-EPOCHTIME C-DECAY D-ELSETNUM E-INCLINATION F-RAAN G-ECCENTRICITY H-ARGPERIGEE I-MNANOM J-MNMOTION K-ORBITNUM Z-CHECKSUM
TO ALL RADIO AMATEURS BT
AO-07 1 07530U 74089B 07045.63861570 -.00000028 00000-0 10000-3 0 08078 2 07530 101.5348 087.1773 0012111 134.3426 225.8638 12.53572478475768 AO-10 1 14129U 83058B 07045.17252119 .00000013 00000-0 10000-3 0 03616 2 14129 026.9212 291.6014 6052801 357.9735 000.5274 02.05868902178032 UO-11 1 14781U 84021B 07045.57856784 .00000193 00000-0 33157-4 0 03026 2 14781 098.2001 065.8537 0008640 200.9185 159.1641 14.79522227231600 RS-10/11 1 18129U 87054A 07045.82196860 .00000037 00000-0 23674-4 0 02293 2 18129 082.9281 148.6986 0012474 132.5249 227.6961 13.72784292984446 RS-15 1 23439U 94085A 07045.85412822 -.00000039 00000-0 10597-3 0 00152 2 23439 064.8143 204.7569 0162758 212.2151 146.8749 11.27551838499906 FO-29 1 24278U 96046B 07045.95990158 .00000010 00000-0 44420-4 0 04433 2 24278 098.5336 022.1092 0351247 040.1721 322.4822 13.52927838518377 SO-33 1 25509U 98061B 07045.72854272 .00000055 00000-0 45453-6 0 8646 2 25509 031.4273 198.0974 0354661 076.8188 287.1768 14.28146571433732 AO-40 1 26609U 00072B 07046.52374286 .00000066 00000-0 10000-3 0 8407 2 26609 004.8306 174.4525 7997343 274.2209 008.5819 01.25586301 28914 VO-52 1 28650U 05017B 07045.70900109 .00000405 00000-0 58468-4 0 05569 2 28650 097.8446 119.1059 0026194 293.4468 066.3997 14.81266245096289 PO-63 1 29712U 07001D 07046.72234358 .00000835 00000-0 11833-3 0 1076 2 29712 097.9377 107.4992 0014998 158.8994 201.2839 14.79553613 5376 AO-16 1 20439U 90005D 07045.72253577 .00000017 00000-0 21376-4 0 09672 2 20439 098.1926 047.0546 0010647 187.4095 172.6931 14.31750252891022 LO-19 1 20442U 90005G 07045.57193595 -.00000074 00000-0 -12381-4 0 8942 2 20442 098.1824 056.3944 0011571 187.4341 172.6677 14.31991016891144 AO-27 1 22825U 93061C 07045.89202191 .00000065 00000-0 41901-4 0 6173 2 22825 098.3158 021.2011 0007561 262.6123 097.4233 14.29199529698027 IO-26 1 22826U 93061D 07045.68036376 .00000015 00000-0 21949-4 0 03139 2 22826 098.3091 022.1206 0008048 261.5816 098.4444 14.29444856698074 PO-28 1 22829U 93061G 07045.90609683 -.00000007 00000-0 13208-4 0 05935 2 22829 098.2987 023.5192 0008993 231.9146 128.1231 14.30143056698339 GO-32 1 25397U 98043D 07045.68355606 .00000012 00000-0 23826-4 0 02323 2 25397 098.4345 098.1561 0000894 182.6453 177.4730 14.23120114446733 MO-46 1 26548U 00057D 07046.47495095 .00000082 00000-0 28097-4 0 7232 2 26548 064.5559 199.1894 0029294 213.4503 146.4769 14.83098943345486 NO-44 1 26931U 01043C 07046.62677641 -.00000160 00000-0 -30370-4 0 5223 2 26931 067.0522 100.6226 0005881 276.1059 083.9358 14.29472357280723 SO-50 1 27607U 02058C 07046.51942401 .00000037 00000-0 27716-4 0 2439 2 27607 064.5586 094.4212 0040255 040.2496 320.1566 14.71227879223223 CO-55 1 27844U 03031E 07046.67060504 .00000053 00000-0 44948-4 0 9628 2 27844 098.7217 056.6223 0010742 082.5584 277.6807 14.20491753188225 CO-57 1 27848U 03031J 07045.54864190 .00000051 00000-0 44329-4 0 9238 2 27848 098.7205 054.7564 0010611 087.9206 272.3198 14.20313532188041 AO-51 1 28375U 04025K 07045.62772381 .00000014 00000-0 17008-4 0 07496 2 28375 098.1315 091.1609 0083255 193.4556 166.4414 14.40555147138077 CO-56 1 28941U 06005C 07045.63323873 .00022865 25246-5 25670-3 0 3529 2 28941 098.1501 093.4622 0243617 345.8023 013.6507 15.34745715 54603 HO-59 1 29484U 06041F 07045.68707433 .00043254 29720-5 34842-3 0 01957 2 29484 098.3067 077.6671 0240946 342.5941 016.7172 15.41780786022149 NO-60 1 29661U 06055C 07045.94238938 .00061102 00000-0 21855-3 0 00740 2 29661 051.6445 012.3384 0010342 217.1987 142.8306 15.88144611008873 NO-61 1 29667U 06055J 07045.96051082 .00015912 00000-0 72947-4 0 00579 2 29667 051.6365 013.1772 0014929 224.4535 135.5273 15.83755415008603 NOAA-10 1 16969U 86073A 07045.55628502 .00000016 00000-0 24757-4 0 05479 2 16969 098.7542 062.6193 0012548 161.6180 198.5447 14.27317361061738 NOAA-11 1 19531U 88089A 07045.78797797 .00000190 00000-0 12140-3 0 05334 2 19531 098.8147 136.4761 0012012 022.7817 337.3859 14.14835751948849 NOAA-12 1 21263U 91032A 07045.89314626 -.00000049 00000-0 -21099-5 0 00277 2 21263 098.7491 043.3639 0013619 102.3108 257.9623 14.25521670818821 MET-3/5 1 21655U 91056A 07046.84897210 .00000051 00000-0 10000-3 0 2269 2 21655 082.5533 088.6777 0013574 146.8672 213.3304 13.17009775745433 MET-2/21 1 22782U 93055A 07046.37347195 -.00000035 00000-0 -45370-4 0 7495 2 22782 082.5504 138.5588 0021442 214.8281 145.1460 13.83612950679678 OKEAN-4 1 23317U 94066A 07045.74291861 .00000296 00000-0 33817-4 0 1866 2 23317 082.5374 050.7620 0020751 298.6691 061.2440 14.82467356665913 NOAA-14 1 23455U 94089A 07045.70933784 .00000042 00000-0 45991-4 0 05181 2 23455 099.0053 111.1656 0010065 087.9426 272.2879 14.13699404625333 SICH-1 1 23657U 95046A 07046.78027532 .00000021 00000-0 26708-5 0 9887 2 23657 082.5298 190.7049 0022532 284.2546 075.6662 14.81450405618058 NOAA-15 1 25338U 98030A 07045.89555291 .00000045 00000-0 37648-4 0 08799 2 25338 098.5281 046.0479 0010991 030.6839 329.4991 14.24626411455276 RESURS 1 25394U 98043A 07045.74837315 -.00000005 00000-0 16051-4 0 05787 2 25394 098.4579 105.0281 0001263 151.6689 208.4560 14.24127124446920 FENGYUN1 1 25730U 99025A 07046.92926624 .00000262 00000-0 17996-3 0 9545 2 25730 098.6802 035.4391 0021111 107.0710 253.2775 14.07416339400406 OKEAN-0 1 25860U 99039A 07046.74195113 .00000071 00000-0 18200-4 0 9790 2 25860 097.7316 054.6678 0001871 064.6358 295.5063 14.73430500407616 NOAA-16 1 26536U 00055A 07045.84967246 .00000090 00000-0 73920-4 0 02867 2 26536 099.1030 020.7490 0010933 154.3775 205.7958 14.12404513329832 NOAA-17 1 27453U 02032A 07045.68504729 -.00000039 00000-0 17617-5 0 03012 2 27453 098.5941 117.8625 0012657 091.5878 268.6756 14.23853129241283 NOAA-18 1 28654U 05018A 07045.72343095 -.00000059 00000-0 -84314-5 0 08448 2 28654 098.8166 349.1393 0013554 254.5755 105.3902 14.11036983089584 HUBBLE 1 20580U 90037B 07045.93287173 .00000398 00000-0 18076-4 0 08243 2 20580 028.4685 267.3067 0003766 238.7372 121.2849 15.00190822721583 UARS 1 21701U 91063B 07046.77376494 .00004896 00000-0 90252-4 0 9960 2 21701 056.9769 120.3038 0091650 320.6038 038.8376 15.46703172846958 PO-34 1 25520U 98064B 07046.79355637 .00000547 00000-0 17278-4 0 6759 2 25520 028.4588 201.1830 0004942 016.0063 344.0686 15.16926126459076 ISS 1 25544U 98067A 07047.01064127 .00020610 00000-0 11900-3 0 6506 2 25544 051.6352 010.2234 0020872 211.2343 275.7318 15.78330083471633 OO-38 1 26063U 00004C 07045.73231838 .00000013 00000-0 24583-4 0 8395 2 26063 100.2193 025.7742 0037174 144.0490 216.3194 14.35795941369479 NO-45 1 26932U 01043D 07046.62810998 -.00000054 00000-0 11319-4 0 5287 2 26932 067.0552 100.3656 0004133 285.3399 074.7243 14.29549348280769 UWE-1 1 28892U 05043C 07046.65860430 .00000095 00000-0 29783-4 0 6770 2 28892 098.1450 305.6316 0018328 129.7961 230.4848 14.59464640 69488 CO-58 1 28895U 05043F 07046.70989441 .00000094 00000-0 29587-4 0 6594 2 28895 098.1466 305.8472 0018901 130.2845 229.9995 14.59514092 69379 NCUBE2 1 28897U 05043H 07044.26177427 .00000154 00000-0 41923-4 0 01868 2 28897 098.1478 303.4131 0017901 137.9853 222.2688 14.59673318061297 NMARS 1 29662U 06055D 07046.80902947 .00087396 13880-4 30342-3 0 776 2 29662 051.6378 007.6030 0009125 218.5004 141.5452 15.89407629 8900 FCAL 1 29664U 06055F 07045.95250205 .00023560 00000-0 10328-3 0 00597 2 29664 051.6363 013.1210 0014475 220.5865 139.4059 15.84374766008730 /EX